Regional Weather Roundup
Issued by NWS

Home | Current Version | Previous Version | Graphics & Text | Print | Product List | Glossary On
Versions: 1 2 3 4 5 6 7 8 9 10 11 12 13 14 15 16 17 18 19 20 21 22 23 24 25 26 27 28 29 30 31 32 33 34 35 36 37 38 39 40 41 42 43 44 45 46 47 48 49 50
375
ASUS45 KBOU 170710
RWRCO

WEATHER ROUNDUP FOR COLORADO
NATIONAL WEATHER SERVICE DENVER/BOULDER CO
1200 AM MST SUN DEC 17 2017

NOTE: "FAIR" INDICATES FEW OR NO CLOUDS BELOW 12000 FEET WITH NO
SIGNIFICANT WEATHER AND/OR OBSTRUCTIONS TO VISIBILITY.

COZ001>005-013-030-031-170800-
...NORTHWEST COLORADO...

CITY           SKY/WX    TMP DP  RH WIND       PRES   REMARKS
CRAIG          FAIR      13   9  84 CALM      29.90R
HAYDEN         FAIR      20  13  74 CALM      29.90R
MEEKER         FAIR      19  10  68 CALM      29.88S
RABBIT EARS PA FAIR      19   0  42 W9        29.86S WCI   9
STEAMBOAT SPGS FAIR      22  14  70 CALM      29.87S
WALDEN         FAIR       9   5  85 SE8       29.87S WCI  -4
$$

COZ006>008-011-170800-
...WEST CENTRAL VALLEYS...

CITY           SKY/WX    TMP DP  RH WIND       PRES   REMARKS
GRAND JUNCTION FAIR      24   7  48 E3        29.91R
MONTROSE       FAIR      26   9  48 SE8       29.93R WCI  18
EAGLE          FAIR      15  10  80 SE6       29.93R WCI   6
RIFLE          FAIR      23   8  52 CALM      29.91R
DELTA          FAIR      28   5  36 CALM      29.92S
NUCLA          FAIR      27  -4  26 E7        29.94R WCI  19
$$

COZ017>023-064>068-170800-
...SOUTHWEST COLORADO...

CITY           SKY/WX    TMP DP  RH WIND       PRES   REMARKS
DURANGO        FAIR      28  10  46 NE5       29.87S WCI  23
CORTEZ         FAIR      22   7  52 E6        29.90R WCI  14
PAGOSA SPRINGS FAIR      24   4  43 CALM      29.89S
TELLURIDE      FAIR      29  -4  24 CALM      29.92R
WOLF CREEK PAS FAIR      19  -2  38 SW10      29.97S WCI   8
$$

COZ009-010-012-014-032>034-037-058>063-170800-
...CENTRAL COLORADO...

CITY           SKY/WX    TMP DP  RH WIND       PRES   REMARKS
ASPEN          FAIR      18   9  68 SE3       29.86R
BUENA VISTA    FAIR      13   8  80 W3        29.88F
COPPER MTN     NOT AVBL
BERTHOUD PASS  FAIR      19   9  63 W15       29.89F WCI   5
COTTONWOOD PAS FAIR      32   7  34 CALM      29.88F
GUNNISON       FAIR      18  10  71 CALM      29.90R
KREMMLING      FAIR      12   9  85 CALM      29.90R
LEADVILLE      FAIR      18   4  54 E5        29.86F WCI  11
MONARCH PASS   MOCLDY    23  -2  33 W20       30.01S WCI   8
SALIDA         FAIR      27   9  47 SW7       29.96F WCI  19
SUNLIGHT       FAIR      19  -4  35 W8        29.93S WCI   9
WILKERSON PASS FAIR      21   3  45 W8        29.90F WCI  12
$$

COZ069>075-170800-
...SAN LUIS VALLEY/SANGRE DE CRISTO MOUNTAINS...

CITY           SKY/WX    TMP DP  RH WIND       PRES   REMARKS
ALAMOSA        FAIR      16  11  80 E6        29.85S WCI   7
DEL NORTE      FAIR      16   6  66 W10       29.87R WCI   3
LA VETA PASS   FAIR      23   7  50 SW16G25     N/A  WCI  10
SAGUACHE       FAIR      23  10  58 NW14      29.87R WCI  11
$$

COZ035-036-038>040-170800-
...NORTHERN COLORADO FRONT RANGE...

CITY           SKY/WX    TMP DP  RH WIND       PRES   REMARKS
DENVER INTL AP CLOUDY    29  26  89 NE6       29.93S WCI  23
DMNS CITY PARK NOT AVBL
AURORA         CLOUDY    28  28  99 N3        29.93S
FRONT RANGE AP CLOUDY    30  29  94 E3        29.94S FOG
ERIE MUNI ARPT CLOUDY    32  28  85 NE6       30.00F WCI  26
BOULDER MUN AP CLOUDY    32  28  86 NE5       29.94F WCI  27
CENTENNIAL     CLOUDY    28  25  88 CALM      29.91S
BROOMFIELD     CLOUDY    32  28  86 NE7       29.93F WCI  26
FORT COLLINS   MIX PCPN  31  28  89 NE6       29.96F WCI  25
LONGMONT       CLOUDY    34  28  79 NE5       29.97F WCI  30
$$

COZ041-046-047-076>085-087-088-170800-
...PIKES PEAK/PALMER DIVIDE AND SOUTHERN FOOTHILLS...

CITY           SKY/WX    TMP DP  RH WIND       PRES   REMARKS
COLO. SPRINGS  MOCLDY    30  21  69 W5        29.89F WCI  25
A. F. ACADEMY  FAIR      25  19  76 N3        29.87F
SCHRIEVER AFB  FAIR      27  22  79 N6        29.89S WCI  21
CHEYENNE MTN   MOCLDY    29  17  60 CALM      29.83F
ELLICOTT         N/A    N/A N/A N/A NE7       29.88S
FALCON         CLOUDY    26  20  79 NW5       29.89S WCI  20
FORT CARSON    FAIR      31  21  66 CALM      29.88F
LIMON          CLOUDY    27  26  96 NE10      29.91S WCI  17
MONUMENT HILL  FOG       23  23 100 CALM      29.90F VSB 3/4
CANON CITY     FAIR      36  18  48 CALM      29.91S
WALSENBURG     FAIR      23  16  74 CALM      29.90S
TRINIDAD       FAIR      22  13  68 NW9       29.90S WCI  12
$$

COZ042>045-048>051-090-091-170800-
...NORTHEAST COLORADO...

CITY           SKY/WX    TMP DP  RH WIND       PRES   REMARKS
GREELEY ARPT   CLOUDY    31  29  92 E3        29.98S FOG
AKRON          FOG       30  28  92 NE12      29.93F VSB 1/2 WCI  20
BURLINGTON     CLOUDY    32  29  88 NE20G28   29.91R WCI  20
WRAY           CLOUDY    34  32  93 N12       29.94F WCI  25
YUMA           CLOUDY    32  30  93 NE9       29.93F FOG     WCI  24
STERLING       CLOUDY    32  32 100 NE6       29.95F FOG     WCI  26
HOLYOKE        CLOUDY    36  32  87 NE13      29.96F
FORT MORGAN    CLOUDY    31  29  92 NE10      29.96F WCI  22
$$

COZ086-089-092>099-170800-
...SOUTHEAST COLORADO...

CITY           SKY/WX    TMP DP  RH WIND       PRES   REMARKS
PUEBLO         FAIR      25  17  72 N9        29.91S WCI  15
LA JUNTA       MOCLDY    30  26  85 N5        29.91R WCI  25
LAMAR          FAIR      30  24  78 N13       29.86R WCI  20
SPRINGFIELD      N/A     26  21  81 NW17      29.80R WCI  13
$$




USA.gov is the U.S. government's official web portal to all federal, state and local government web resources and services.